Weather History for K08D - August, 2012

Change the Weather History Date:

Tuesday, August 14, 2012

  Actual Average (KMOT) Record (KMOT)
Temperature  
Mean Temperature 66 °F 69 °F  
Max Temperature 80 °F 82 °F 99 °F (1937)
Min Temperature 53 °F 57 °F 32 °F (1921)
Cooling Degree Days 2 5  
Month to date cooling degree days 83  
Year to date cooling degree days 341  
Since 1 June cooling degree days 325  
Growing Degree Days 16 (Base 50)    
Moisture  
Dew Point 54 °F    
Average Humidity 66    
Maximum Humidity 100    
Minimum Humidity 39    
Precipitation  
Precipitation 0.00 in 0.07 in 5.73 in (1987)
Month to date precipitation 0.93  
Year to date precipitation 12.33  
Sea Level Pressure  
Sea Level Pressure 29.85 in    
Wind  
Wind Speed 9 mph (SSE)    
Max Wind Speed 18 mph    
Max Gust Speed 26 mph    
Visibility 10 miles    
Events      
T = Trace of Precipitation, MM = Missing Value Source: NWS Daily Summary

Daily Weather History Graph

Daily Weather History Graph

Search for Another Location

Airport or City:

Trip Planner

Search our weather history database for the weather conditions in past years. The results will help you decide how hot, cold, wet, or windy it might be!

Date:

Astronomy

Aug. 14, 2012 Rise Set
Actual Time 6:43 AM CDT 9:04 PM CDT
Civil Twilight 6:08 AM CDT 9:38 PM CDT
Nautical Twilight 5:25 AM CDT 10:21 PM CDT
Astronomical Twilight 4:35 AM CDT 11:10 PM CDT
Moon 3:35 AM CDT (8/14) 7:05 PM CDT (8/14)
Length of Visible Light 15h 30m
Length of Day
14h 21m
Waning Crescent, 9% of the Moon is Illuminated
Aug 14
Waning Crescent
Aug 17
New
Aug 24
First Quarter
Aug 31
Full
Sep 8
Last Quarter

Hourly Weather History & Observations

Time (CDT) Temp. Heat Index Dew Point Humidity Pressure Visibility Wind Dir Wind Speed Gust Speed Precip Events Conditions
12:15 AM 57.2 °F - 50.0 °F 77% 30.00 in 10.0 mi ESE 6.9 mph - N/A   Clear
12:35 AM 57.2 °F - 50.0 °F 77% 30.01 in 10.0 mi ESE 6.9 mph - N/A   Partly Cloudy
12:55 AM 57.2 °F - 50.0 °F 77% 30.00 in 10.0 mi ESE 8.1 mph - N/A   Partly Cloudy
1:15 AM 55.4 °F - 50.0 °F 82% 30.00 in 10.0 mi East 6.9 mph - N/A   Clear
1:35 AM 55.4 °F - 50.0 °F 82% 30.00 in 10.0 mi East 5.8 mph - N/A   Partly Cloudy
1:55 AM 55.4 °F - 50.0 °F 82% 30.00 in 10.0 mi ESE 6.9 mph - N/A   Mostly Cloudy
2:15 AM 55.4 °F - 50.0 °F 82% 29.99 in 10.0 mi ESE 5.8 mph - N/A   Scattered Clouds
2:55 AM 53.6 °F - 51.8 °F 94% 29.99 in 10.0 mi East 5.8 mph - N/A   Clear
3:15 AM 53.6 °F - 51.8 °F 94% 29.98 in 10.0 mi ESE 6.9 mph - N/A   Clear
3:35 AM 53.6 °F - 51.8 °F 94% 29.98 in 10.0 mi SE 4.6 mph - N/A   Scattered Clouds
3:55 AM 53.6 °F - 51.8 °F 94% 29.97 in 10.0 mi SSE 3.5 mph - N/A   Scattered Clouds
4:15 AM 53.6 °F - 51.8 °F 94% 29.97 in 10.0 mi South 4.6 mph - N/A   Clear
4:35 AM 53.6 °F - 51.8 °F 94% 29.97 in 10.0 mi Calm Calm - N/A   Scattered Clouds
4:55 AM 53.6 °F - 53.6 °F 100% 29.96 in 10.0 mi SSE 3.5 mph - N/A   Overcast
5:15 AM 53.6 °F - 53.6 °F 100% 29.95 in 10.0 mi Calm Calm - N/A   Overcast
5:35 AM 53.6 °F - 53.6 °F 100% 29.95 in 10.0 mi ESE 3.5 mph - N/A   Mostly Cloudy
5:55 AM 53.6 °F - 53.6 °F 100% 29.94 in 10.0 mi SSE 3.5 mph - N/A   Mostly Cloudy
6:15 AM 53.6 °F - 53.6 °F 100% 29.94 in 10.0 mi ESE 3.5 mph - N/A   Partly Cloudy
6:35 AM 53.6 °F - 53.6 °F 100% 29.94 in 10.0 mi SE 4.6 mph - N/A   Clear
6:55 AM 53.6 °F - 53.6 °F 100% 29.94 in 10.0 mi SE 4.6 mph - N/A   Clear
7:15 AM 53.6 °F - 53.6 °F 100% 29.94 in 10.0 mi SE 3.5 mph - N/A   Clear
7:35 AM 53.6 °F - 53.6 °F 100% 29.93 in 10.0 mi ESE 3.5 mph - N/A   Clear
7:55 AM 55.4 °F - 55.4 °F 100% 29.93 in 10.0 mi SE 3.5 mph - N/A   Clear
8:15 AM 57.2 °F - 55.4 °F 94% 29.93 in 10.0 mi SE 4.6 mph - N/A   Clear
8:35 AM 60.8 °F - 55.4 °F 82% 29.92 in 10.0 mi SSE 6.9 mph - N/A   Clear
8:55 AM 64.4 °F - 55.4 °F 73% 29.92 in 10.0 mi SSE 9.2 mph - N/A   Clear
9:15 AM 64.4 °F - 55.4 °F 73% 29.92 in 10.0 mi SSE 10.4 mph - N/A   Clear
9:35 AM 66.2 °F - 53.6 °F 64% 29.91 in 10.0 mi South 12.7 mph - N/A   Clear
9:55 AM 66.2 °F - 55.4 °F 68% 29.90 in 10.0 mi South 12.7 mph 17.3 mph N/A   Clear
10:15 AM 68.0 °F - 55.4 °F 64% 29.90 in 10.0 mi South 12.7 mph - N/A   Clear
10:35 AM 68.0 °F - 55.4 °F 64% 29.90 in 10.0 mi SSE 15.0 mph - N/A   Clear
10:55 AM 69.8 °F - 55.4 °F 60% 29.89 in 10.0 mi South 12.7 mph - N/A   Clear
11:15 AM 71.6 °F - 55.4 °F 57% 29.89 in 10.0 mi South 12.7 mph 18.4 mph N/A   Clear
11:35 AM 71.6 °F - 55.4 °F 57% 29.88 in 10.0 mi South 15.0 mph 21.9 mph N/A   Clear
11:55 AM 73.4 °F - 55.4 °F 53% 29.87 in 10.0 mi SSE 12.7 mph 20.7 mph N/A   Clear
12:15 PM 73.4 °F - 55.4 °F 53% 29.86 in 10.0 mi South 15.0 mph 19.6 mph N/A   Clear
12:35 PM 75.2 °F - 55.4 °F 50% 29.85 in 10.0 mi SSE 16.1 mph 21.9 mph N/A   Clear
12:55 PM 75.2 °F - 55.4 °F 50% 29.85 in 10.0 mi South 18.4 mph 23.0 mph N/A   Clear
1:15 PM 77.0 °F - 53.6 °F 44% 29.84 in 10.0 mi SSW 18.4 mph 26.5 mph N/A   Clear
1:35 PM 77.0 °F - 53.6 °F 44% 29.83 in 10.0 mi South 15.0 mph 25.3 mph N/A   Clear
1:55 PM 77.0 °F - 53.6 °F 44% 29.82 in 10.0 mi South 18.4 mph 23.0 mph N/A   Clear
2:15 PM 77.0 °F - 53.6 °F 44% 29.81 in 10.0 mi South 16.1 mph 26.5 mph N/A   Clear
2:35 PM 80.6 °F 80.3 °F 53.6 °F 39% 29.81 in 10.0 mi SSE 15.0 mph 23.0 mph N/A   Clear
2:55 PM 80.6 °F 80.3 °F 53.6 °F 39% 29.80 in 10.0 mi South 13.8 mph 25.3 mph N/A   Clear
3:15 PM 80.6 °F 80.3 °F 53.6 °F 39% 29.80 in 10.0 mi South 13.8 mph - N/A   Clear
3:35 PM 80.6 °F 80.3 °F 53.6 °F 39% 29.79 in 10.0 mi South 15.0 mph 20.7 mph N/A   Clear
3:55 PM 80.6 °F 80.3 °F 53.6 °F 39% 29.79 in 10.0 mi South 18.4 mph - N/A   Clear
4:15 PM 80.6 °F 80.3 °F 53.6 °F 39% 29.78 in 10.0 mi South 18.4 mph - N/A   Clear
4:35 PM 80.6 °F 80.3 °F 53.6 °F 39% 29.77 in 10.0 mi South 17.3 mph - N/A   Clear
4:55 PM 80.6 °F 80.3 °F 53.6 °F 39% 29.77 in 10.0 mi South 15.0 mph 21.9 mph N/A   Clear
5:15 PM 80.6 °F 80.3 °F 53.6 °F 39% 29.76 in 10.0 mi South 13.8 mph 20.7 mph N/A   Clear
5:35 PM 80.6 °F 80.3 °F 53.6 °F 39% 29.76 in 10.0 mi South 13.8 mph - N/A   Clear
5:55 PM 78.8 °F - 53.6 °F 42% 29.75 in 10.0 mi South 13.8 mph 19.6 mph N/A   Clear
6:15 PM 80.6 °F 80.3 °F 53.6 °F 39% 29.74 in 10.0 mi South 16.1 mph 19.6 mph N/A   Clear
6:35 PM 80.6 °F 80.3 °F 53.6 °F 39% 29.74 in 10.0 mi South 15.0 mph - N/A   Clear
6:55 PM 80.6 °F 80.3 °F 53.6 °F 39% 29.73 in 10.0 mi South 12.7 mph - N/A   Clear
7:15 PM 78.8 °F - 53.6 °F 42% 29.73 in 10.0 mi South 13.8 mph - N/A   Clear
7:35 PM 78.8 °F - 53.6 °F 42% 29.72 in 10.0 mi South 11.5 mph - N/A   Clear
7:55 PM 77.0 °F - 53.6 °F 44% 29.72 in 10.0 mi South 11.5 mph - N/A   Clear
8:15 PM 77.0 °F - 53.6 °F 44% 29.71 in 10.0 mi South 10.4 mph - N/A   Clear
8:35 PM 75.2 °F - 53.6 °F 47% 29.70 in 10.0 mi SSE 9.2 mph - N/A   Clear
8:55 PM 73.4 °F - 53.6 °F 50% 29.70 in 10.0 mi SSE 9.2 mph - N/A   Clear
9:15 PM 71.6 °F - 55.4 °F 57% 29.70 in 10.0 mi SSE 9.2 mph - N/A   Clear
9:35 PM 69.8 °F - 55.4 °F 60% 29.70 in 10.0 mi SSE 10.4 mph - N/A   Clear
9:55 PM 68.0 °F - 55.4 °F 64% 29.70 in 10.0 mi SSE 8.1 mph - N/A   Clear
10:15 PM 68.0 °F - 55.4 °F 64% 29.70 in 10.0 mi SSE 9.2 mph - N/A   Clear
10:35 PM 68.0 °F - 57.2 °F 68% 29.70 in 10.0 mi South 11.5 mph 16.1 mph N/A   Clear
10:55 PM 68.0 °F - 57.2 °F 68% 29.69 in 10.0 mi South 10.4 mph 16.1 mph N/A   Clear
11:15 PM 68.0 °F - 57.2 °F 68% 29.69 in 10.0 mi SSE 12.7 mph - N/A   Clear
11:55 PM 68.0 °F - 57.2 °F 68% 29.68 in 10.0 mi South 12.7 mph 18.4 mph N/A   Clear